Regional Weather Roundup
Issued by NWS New Orleans/Baton Rouge, LA

Home | Current Version | Previous Version | Text Only | Print | Product List | Glossary On
Versions: 1 2 3 4 5 6 7 8 9 10 11 12 13 14 15 16 17 18 19 20 21 22 23 24 25 26 27 28 29 30 31 32 33 34 35 36 37 38 39 40 41 42 43 44 45 46 47 48 49 50
000
ASUS44 KLIX 251910
RWRLIX
NEW ORLEANS REGIONAL WEATHER ROUNDUP
NATIONAL WEATHER SERVICE NEW ORLEANS LA
200 PM CDT SAT OCT 25 2014

NOTE: "FAIR" INDICATES FEW OR NO CLOUDS BELOW 12,000 FEET WITH NO
      SIGNIFICANT WEATHER AND/OR OBSTRUCTIONS TO VISIBILITY.
      SKY/WX - SKY CONDITION AND SIGNIFICANT WEATHER.
      TMP - AIR TEMPERATURE.     DP    - DEWPOINT TEMPERATURE.
      RH  - RELATIVE HUMIDITY.   PRES  - PRESSURE.
      HI  - HEAT INDEX.          WCI   - WIND CHILL INDEX.

*  THESE STATIONS ARE NOT NWS OR FAA STATIONS AND ARE NOT UNDER
   NWS QUALITY CONTROL.

LAZ038-040-048-061>063-065>067-069-252000-
SOUTHEAST LOUISIANA

CITY           SKY/WX    TMP DP  RH WIND       PRES   REMARKS
N.O. AUDUBON     N/A     80  55  42 MISG        N/A
N.O. INTL ARPT SUNNY     76  50  40 N7        30.11F
N.O. LAKEFRONT SUNNY     73  54  51 NW8       30.11F
N.O. DOWNTOWN*   N/A     77  48  36 NW5       30.11F
SLIDELL        SUNNY     79  54  41 MISG      30.09F
BATON ROUGE    SUNNY     81  52  36 N3        30.11F
BOOTHVILLE     SUNNY     73  53  49 N7        30.11F
BELLE CHASSE   SUNNY     79  51  37 NE6       30.10F
BOGALUSA*        N/A     81  54  39 N8        30.10F
NEW ROADS*       N/A     79  52  38 NW3       30.12F
GONZALES*        N/A     78  53  42 NW5       30.11F
HAMMOND*       SUNNY     82  52  34 N6        30.11F
HOUMA*         SUNNY     79  54  41 NE9       30.10F
PORT FOURCHON* CLEAR     73  55  53 NE10      30.14F

$$

MSZ070-080>082-252000-
SOUTHERN MISSISSIPPI

CITY           SKY/WX    TMP DP  RH WIND       PRES   REMARKS
MCCOMB         SUNNY     79  55  43 NW9       30.11F
GULFPORT       SUNNY     78  52  40 N7        30.07F
BILOXI         SUNNY     79  55  43 N5        30.07F
PASCAGOULA     SUNNY     78  52  40 NE8       30.07F
STENNIS ARPT*  SUNNY     79  50  36 NW6       30.09F

$$

COASTAL OBSERVATIONS
LAKE AND NEARSHORE STATIONS

STATION/POSITION TIME  TEMP    WIND        PRES    WAVE
                       AIR SEA DIR/SP/G            HT/PER
                 (UTC) (F)     (DEG/KT/KT) (MB)    (FT/S)
PASCAGOULA       1900   78      20/ 10/ 15 1017.8
WAVELAND YACHT   1900   76      10/  3/  4 1018.1
GRAND ISLE       1900   73 72   40/  5/  8 1020.1
SOUTHWEST PASS   1900   76 80              1019.3
NEW CANAL        1900   70 70  330/  3/  5 1020.1
SHELL BEACH      1900   70 67  330/  4/  4 1019.2

OFFSHORE STATIONS

STATION/POSITION TIME  TEMP    WIND        PRES    WAVE
                       AIR SEA DIR/SP/G            HT/PER
                 (UTC) (F)     (DEG/KT/KT) (MB)    (FT/S)
64 S DAUPHIN ISL 1803   71 78   30/ 14/ 16 1018.8    3/ 5

$$




USA.gov is the U.S. government's official web portal to all federal, state and local government web resources and services.